DW5868 Weather Reports


time (UTC)temp
C
wind
direction
speed
KPH
gust
KPH
rain 1hr
cm
rain 24hr
cm
rain mn
cm
humidity
%
barometer
mb
20260505073053 1 277 6.4 16.1 0.00 0.30 0.30 82 1009.1
20260505071555 1 232 3.2 14.5 0.00 0.30 0.30 81 1009.1
20260505070045 1 236 3.2 12.9 0.00 0.30 0.30 82 1009.0
20260505064543 1 279 1.6 9.7 0.00 0.30 0.30 81 1009.0
20260505063042 1 211 1.6 11.3 0.00 0.30 0.30 82 1009.1
20260505061545 1 269 3.2 11.3 0.00 0.30 0.30 81 1009.2
20260505060047 1 291 3.2 17.7 0.00 0.30 0.30 81 1009.1
20260505054541 1 261 0.0 12.9 0.00 0.30 0.30 82 1009.1
20260505053040 1 300 4.8 11.3 0.00 0.30 0.30 80 1009.0
20260505051556 1 271 1.6 11.3 0.00 0.30 0.30 77 1008.9
20260505041538 2 322 4.8 12.9 0.00 0.30 0.30 77 1008.2
20260505040037 2 284 1.6 14.5 0.00 0.30 0.30 71 1007.9
20260505034535 2 206 3.2 20.9 0.00 0.30 0.30 69 1007.7
20260505033037 2 273 6.4 16.1 0.00 0.30 0.30 71 1007.6
20260505031533 2 233 6.4 17.7 0.00 0.30 0.30 72 1007.8
20260505030032 2 250 8.0 22.5 0.00 0.30 0.30 71 1007.4
20260505024533 2 263 6.4 27.4 0.00 0.30 0.30 73 1007.5
20260505023032 2 217 6.4 24.1 0.00 0.30 0.30 73 1007.6
20260505021532 2 270 4.8 19.3 0.00 0.30 0.30 73 1007.7
20260505020030 2 342 6.4 16.1 0.00 0.30 0.30 74 1007.7
20260505014530 2 269 8.0 19.3 0.00 0.30 0.30 76 1007.8
20260505013036 2 236 6.4 22.5 0.00 0.33 0.30 77 1007.9
20260505011530 3 284 8.0 22.5 0.00 0.33 0.30 76 1007.9
20260505010030 3 214 6.4 17.7 0.00 0.33 0.30 75 1007.8
20260505004532 3 272 8.0 27.4 0.00 0.33 0.30 75 1007.9
20260505003034 4 325 8.0 27.4 0.00 0.33 0.30 70 1007.6
20260505001532 6 277 4.8 29.0 0.00 0.33 0.30 66 1007.4
20260505000040 6 155 3.2 14.5 0.00 0.33 0.30 65 1007.3
20260504234533 5 249 6.4 19.3 0.00 0.33 0.30 66 1007.2
20260504233029 5 284 8.0 24.1 0.00 0.33 0.30 66 1007.2
20260504231529 5 211 4.8 12.9 0.00 0.33 0.30 64 1007.2
20260504230029 6 95 4.8 14.5 0.03 0.33 0.30 62 1007.4
20260504224527 5 194 9.7 22.5 0.03 0.33 0.30 62 1007.3
20260504223027 6 163 8.0 17.7 0.08 0.33 0.30 62 1007.4
20260504221528 5 232 11.3 22.5 0.10 0.33 0.30 61 1007.7
20260504220037 5 229 9.7 35.4 0.10 0.30 0.28 63 1007.2
20260504214527 5 188 14.5 35.4 0.13 0.30 0.28 66 1007.0
20260504213027 5 227 11.3 25.7 0.13 0.28 0.25 71 1007.1
20260504211533 3 188 6.4 24.1 0.10 0.23 0.20 79 1007.6
20260504210025 3 272 0.0 8.0 0.10 0.20 0.18 86 1008.0
20260504204527 2 302 1.6 9.7 0.13 0.18 0.15 80 1008.4
20260504203028 2 210 0.0 8.0 0.13 0.15 0.13 82 1008.5
20260504201523 2 215 0.0 4.8 0.10 0.13 0.10 82 1008.3
20260504200023 2 190 0.0 17.7 0.08 0.10 0.08 84 1008.2
20260504194523 2 229 6.4 17.7 0.05 0.08 0.05 79 1008.1
20260504193025 2 251 3.2 20.9 0.00 0.03 0.00 79 1007.8
20260504191525 2 233 8.0 24.1 0.00 0.03 0.00 78 1007.6
20260504190022 2 213 6.4 20.9 0.00 0.03 0.00 79 1007.2
20260504184522 1 279 8.0 16.1 0.00 0.03 0.00 82 1007.1
20260504183023 1 229 0.0 12.9 0.00 0.03 0.00 87 1007.6
20260504181529 1 226 0.0 6.4 0.00 0.03 0.00 86 1007.7
20260504180022 1 190 0.0 11.3 0.00 0.03 0.00 84 1007.5
20260504174519 2 280 16.1 30.6 0.00 0.03 0.00 81 1006.6
20260504173017 3 302 6.4 22.5 0.00 0.03 0.00 79 1006.1
20260504171516 3 273 11.3 25.7 0.00 0.03 0.00 76 1005.9
20260504081513 3 302 3.2 16.1 0.00 0.03 0.00 70 1008.0